DW2806 Weather Reports


Display with metric or nautical units.
time (UTC)temp
F
wind
direction
speed
MPH
gust
MPH
rain 1hr
in
rain 24hr
in
rain mn
in
humidity
%
barometer
mb
20260905150055 70 311 0.0 4.0 0.00 0.00 0.00 81 1025.7
20260905144549 71 279 0.0 7.0 0.00 0.00 0.00 81 1025.7
20260905143049 70 322 0.0 5.0 0.00 0.00 0.00 84 1025.7
20260905141542 70 301 0.0 4.0 0.00 0.00 0.00 84 1025.7
20260905140040 69 350 0.0 5.0 0.00 0.00 0.00 86 1025.7
20260905134534 67 14 0.0 0.0 0.00 0.00 0.00 89 1025.7
20260905133032 66 17 0.0 0.0 0.00 0.00 0.00 90 1025.7
20260905131541 65 17 0.0 1.0 0.00 0.00 0.00 91 1025.7
20260905130027 65 17 0.0 0.0 0.00 0.00 0.00 91 1025.7
20260905124534 65 17 0.0 0.0 0.00 0.00 0.00 92 1025.7
20260905123024 64 17 0.0 0.0 0.00 0.00 0.00 92 1025.7
20260905121523 64 17 0.0 0.0 0.00 0.00 0.00 92 1025.7
20260905120022 64 17 0.0 0.0 0.00 0.00 0.00 93 1025.7
20260905114535 63 17 0.0 0.0 0.00 0.00 0.00 93 1025.7
20260905113031 62 17 0.0 0.0 0.00 0.00 0.00 93 1025.7
20260905111518 62 17 0.0 0.0 0.00 0.00 0.00 93 1025.7
20260905110017 61 17 0.0 0.0 0.00 0.00 0.00 93 1025.7
20260905104520 61 17 0.0 0.0 0.00 0.00 0.00 93 1025.7
20260905103022 61 17 0.0 0.0 0.00 0.00 0.00 92 1025.7
20260905101518 61 17 0.0 0.0 0.00 0.00 0.00 92 1025.7
20260905100021 61 17 0.0 0.0 0.00 0.00 0.00 92 1025.7
20260905094512 61 17 0.0 0.0 0.00 0.00 0.00 92 1025.7
20260905093012 61 17 0.0 0.0 0.00 0.00 0.00 92 1025.7
20260905091510 61 17 0.0 0.0 0.00 0.00 0.00 91 1025.7
20260905090008 61 17 0.0 0.0 0.00 0.00 0.00 91 1025.7
20260905084506 61 17 0.0 0.0 0.00 0.00 0.00 91 1025.7
20260905083005 62 17 0.0 0.0 0.00 0.00 0.00 91 1025.7
20260905081504 62 17 0.0 0.0 0.00 0.00 0.00 90 1025.7
20260905080003 62 17 0.0 0.0 0.00 0.00 0.00 90 1025.7
20260905074601 63 17 0.0 0.0 0.00 0.00 0.00 90 1025.7
20260905073059 63 17 0.0 0.0 0.00 0.00 0.00 89 1025.7
20260905071559 64 17 0.0 0.0 0.00 0.00 0.00 89 1025.7
20260905070059 64 17 0.0 0.0 0.00 0.00 0.00 89 1025.7
20260905064600 64 17 0.0 0.0 0.00 0.00 0.00 89 1025.7
20260905063101 64 17 0.0 0.0 0.00 0.00 0.00 88 1025.7
20260905061610 64 17 0.0 0.0 0.00 0.00 0.00 88 1025.7
20260905060053 64 17 0.0 0.0 0.00 0.00 0.00 88 1025.7
20260905054552 65 17 0.0 0.0 0.00 0.00 0.00 89 1025.7
20260905053058 64 17 0.0 0.0 0.00 0.00 0.00 88 1025.7
20260905051551 64 17 0.0 0.0 0.00 0.00 0.00 88 1025.7
20260905050050 64 17 0.0 0.0 0.00 0.00 0.00 87 1025.7
20260905044549 65 17 0.0 0.0 0.00 0.00 0.00 88 1025.7
20260905043048 65 17 0.0 0.0 0.00 0.00 0.00 89 1025.7
20260905041551 65 17 0.0 0.0 0.00 0.00 0.00 88 1025.7
20260905040046 65 17 0.0 0.0 0.00 0.00 0.00 88 1025.7
20260905034546 65 17 0.0 0.0 0.00 0.00 0.00 90 1025.7
20260905033047 65 17 0.0 0.0 0.00 0.00 0.00 89 1025.7
20260905031544 65 17 0.0 0.0 0.00 0.00 0.00 90 1025.7
20260905030047 65 17 0.0 0.0 0.00 0.00 0.00 89 1025.7
20260905024543 65 17 0.0 0.0 0.00 0.00 0.00 89 1025.7
20260905023043 65 17 0.0 0.0 0.00 0.00 0.00 89 1025.7
20260905021542 65 17 0.0 0.0 0.00 0.00 0.00 89 1025.7
20260905020056 66 17 0.0 0.0 0.00 0.00 0.00 88 1025.7
20260905014540 66 17 0.0 0.0 0.00 0.00 0.00 88 1025.7
20260905013043 66 17 0.0 0.0 0.00 0.00 0.00 87 1025.7
20260905011539 67 17 0.0 0.0 0.00 0.00 0.00 87 1025.7
20260905010039 67 17 0.0 0.0 0.00 0.00 0.00 86 1025.7
20260905004548 68 17 0.0 0.0 0.00 0.00 0.00 86 1025.7
20260905003038 69 17 0.0 0.0 0.00 0.00 0.00 85 1025.7
20260905001537 69 17 0.0 0.0 0.00 0.00 0.00 84 1025.7
20260905000037 70 17 0.0 0.0 0.00 0.00 0.00 83 1025.7
20260904234536 70 17 0.0 0.0 0.00 0.00 0.00 81 1025.7
20260904233047 71 17 0.0 0.0 0.00 0.00 0.00 80 1025.7
20260904231535 73 17 0.0 0.0 0.00 0.00 0.00 83 1025.7
20260904230035 73 17 0.0 0.0 0.00 0.00 0.00 78 1025.7
20260904224534 73 17 0.0 0.0 0.00 0.00 0.00 75 1025.7
20260904223034 74 17 0.0 0.0 0.00 0.00 0.00 74 1025.7
20260904221539 75 17 0.0 0.0 0.00 0.00 0.00 77 1025.7
20260904220033 76 17 0.0 0.0 0.00 0.00 0.00 71 1025.7
20260904214532 76 17 0.0 0.0 0.00 0.00 0.00 71 1025.7
20260904213032 77 17 0.0 0.0 0.00 0.00 0.00 73 1025.7
20260904211531 77 17 0.0 0.0 0.00 0.00 0.00 73 1025.7
20260904210031 78 17 0.0 0.0 0.00 0.00 0.00 70 1025.7
20260904204532 79 17 0.0 2.0 0.00 0.00 0.00 69 1025.7
20260904203030 79 17 0.0 0.0 0.00 0.00 0.00 70 1025.7
20260904201529 80 17 0.0 0.0 0.00 0.00 0.00 66 1025.7
20260904200029 80 17 0.0 0.0 0.00 0.00 0.00 65 1025.7
20260904194528 79 17 0.0 0.0 0.00 0.00 0.00 65 1025.7
20260904193028 80 17 0.0 0.0 0.00 0.00 0.00 71 1025.7
20260904191526 79 16 0.0 0.0 0.00 0.00 0.00 69 1025.7
20260904190027 79 16 0.0 2.0 0.00 0.00 0.00 66 1025.7
20260904184522 80 17 0.0 0.0 0.00 0.00 0.00 65 1025.7
20260904183026 80 17 0.0 0.0 0.00 0.00 0.00 68 1025.7
20260904181520 81 17 0.0 0.0 0.00 0.00 0.00 70 1025.7
20260904180018 82 323 0.0 0.0 0.00 0.00 0.00 66 1025.7
20260904174517 82 344 0.0 1.0 0.00 0.00 0.00 67 1025.7
20260904173015 82 344 0.0 2.0 0.00 0.00 0.00 64 1025.7
20260904171513 82 118 0.0 2.0 0.00 0.00 0.00 66 1025.7
20260904170016 81 119 0.0 4.0 0.00 0.00 0.00 70 1025.7
20260904164510 80 121 0.0 0.0 0.00 0.00 0.00 73 1025.7
20260904163008 81 121 0.0 4.0 0.00 0.00 0.00 70 1025.7
20260904161506 81 127 0.0 0.0 0.00 0.00 0.00 73 1025.7
20260904160004 80 129 0.0 4.0 0.00 0.00 0.00 74 1025.7
20260904154600 80 130 0.0 0.0 0.00 0.00 0.00 78 1025.7
20260904153124 79 130 0.0 1.0 0.00 0.00 0.00 80 1025.7
20260904151553 78 130 0.0 0.0 0.00 0.00 0.00 82 1025.7